Flag for Canada Weather past 2 weeks in Kingston, Ontario, Canada

Now
37 °F

Passing clouds.


Feels Like: 35 °F
Forecast: 36 / 52 °F
Wind: 3 mph from North

Location: Kingston

Current Time: Oct 20, 2014 at 7:50:25 AM

Latest Report: Oct 20, 2014 at 7:00 AM


Visibility: 15 mi

Pressure: 29.96 "Hg

Humidity: 87%

Dew point: 34 °F

Location of KingstonLocation

Historic Weather in Kingston — Graph

°F

Kingston temperature yesterday

Maximum temperature yesterday: 46 °F (at 3:00 PM)
Minimum temperature yesterday: 34 °F (at 8:00 AM)
Average temperature yesterday: 40 °F

Past Weeks' High & Low Weather Summary

 TemperatureHumidityPressure
High70 °F (Oct 14, 2:00 PM)100% (Oct 12, 8:00 AM)30.31 "Hg (Oct 12, 8:00 AM)
Low32 °F (Oct 12, 7:00 AM)46% (Oct 19, 3:00 PM)29.47 "Hg (Oct 18, 6:00 AM)
Average55 °F77%29.88 "Hg
* Reported Oct 5 6:00 AM — Oct 20 6:00 AM, Kingston, Weather by CustomWeather, © 2014

Note: Actual official high and low records may vary slightly from our data, if they occured in-between our weather recording intervals... More about our weather records

Advertising

Kingston weather history for previous 24 hours

 ConditionsComfort  
Time TempWeatherWind HumidityBarometerVisibility
6:00 AM
Oct 20
37 °FMostly cloudy.5 mph81%29.97 "Hg15 mi
11:00 PM
Oct 19
39 °FPartly cloudy.3 mph70%30.03 "Hg15 mi
10:00 PM39 °FOvercast.5 mph65%30.04 "Hg15 mi
9:00 PM39 °FPassing clouds.7 mph61%30.04 "Hg15 mi
8:00 PM41 °FPassing clouds.7 mph61%30.05 "Hg15 mi
7:00 PM39 °FScattered clouds.6 mph61%30.04 "Hg15 mi
6:00 PM41 °FPartly sunny.2 mph57%30.04 "Hg15 mi
5:00 PM43 °FQuite cool.6 mph53%30.04 "Hg15 mi
4:00 PM45 °FBroken clouds.13 mph49%30.04 "Hg15 mi
3:00 PM46 °FBroken clouds.12 mph46%30.04 "Hg15 mi
2:00 PM43 °FPartly sunny.12 mph53%30.05 "Hg15 mi
1:00 PM43 °FPartly sunny.15 mph53%30.05 "Hg15 mi
12:00 PM41 °FPartly sunny.14 mph53%30.06 "Hg15 mi
11:00 AM43 °FPartly sunny.20 mph53%30.05 "Hg15 mi
10:00 AM39 °FPartly sunny.14 mph65%30.05 "Hg15 mi
9:00 AM36 °FPartly sunny.12 mph81%30.04 "Hg15 mi
8:00 AM34 °FPassing clouds.9 mph81%30.02 "Hg15 mi
7:00 AM36 °FPassing clouds.7 mph75%30.00 "Hg15 mi
Weather by CustomWeather, © 2014

See weather overviewHow to use our weather pages